Wind_Speed
3 4 6 8 9 10 10 9 7 7 6 5 5 6 8 9 10 13 18 20 19 13 9 8 12 14 10 8 6 4 6 8 10 8 8 7 7 5 5 10 15 13 11 9 5 5 4
2 3 5 7 9 8 6 5 4 3 3 4 5 6 8 11 15 19 22 21 16 12 9 9 11 12 7 8 6 5 2 5 5 6 5 4 4 8 8 6 1 6 8 7 3 5 4
1 2 5 7 8 5 3 2 2 3 4 6 8 10 13 17 21 22 23 20 15 12 10 10 12 13 7 5 4 3 0 2 2 4 5 8 9 3 7 9 5 8 10 6 7 4 3
1 2 5 7 7 4 4 5 7 10 11 13 14 16 18 20 22 24 23 17 15 12 11 12 15 13 6 6 3 0 3 4 3 5 8 9 12 9 4 7 5 5 4 5 7 1 3
1 2 4 7 6 4 6 8 10 12 12 14 15 16 17 19 22 24 20 17 13 11 10 11 9 7 7 3 2 1 9 7 6 9 10 8 8 6 4 6 6 2 2 1 7 4 4
2 2 4 6 5 4 7 9 11 11 13 14 16 17 18 18 20 19 17 15 11 8 9 9 7 9 4 4 1 5 8 10 6 8 5 3 4 4 4 3 1 1 3 3 1 6 6
3 2 4 5 5 5 7 9 11 12 15 16 16 16 16 17 17 17 17 14 10 10 11 7 8 9 6 4 11 5 8 7 5 5 3 6 4 7 7 6 3 1 2 2 3 4 6
4 3 3 5 5 4 7 9 11 13 15 16 15 14 14 15 16 16 13 4 8 13 13 12 14 13 11 7 8 11 5 2 2 5 4 4 8 4 4 4 2 2 2 1 2 1 5
5 4 3 5 6 4 7 10 11 13 15 15 14 14 12 12 12 12 11 10 16 9 8 9 9 5 3 12 9 12 8 6 8 8 4 5 6 2 2 6 5 1 2 4 4 4 3
6 5 4 4 5 5 6 10 12 13 15 15 14 12 11 12 10 13 11 11 10 4 3 3 2 5 3 3 6 11 6 2 3 8 8 8 3 2 2 5 7 1 3 8 7 6 4
6 5 4 5 5 5 4 9 12 14 16 16 15 12 10 8 12 8 11 8 7 1 3 1 5 5 8 5 0 13 9 9 6 5 4 4 5 5 6 4 6 5 8 5 4 6 4
7 5 4 4 6 6 4 7 10 14 16 16 15 12 9 7 10 10 8 5 2 3 3 4 2 4 8 13 7 5 7 10 4 8 10 6 3 4 5 3 2 6 3 1 1 2 4
7 5 4 4 5 7 5 6 9 11 17 17 16 13 10 9 8 10 7 3 4 3 1 6 6 4 7 6 7 11 14 12 5 2 3 3 5 2 7 3 4 8 2 2 2 4 1
8 5 3 4 5 7 7 7 9 10 15 18 17 14 11 9 9 8 6 3 4 2 1 3 6 7 4 3 6 6 5 10 13 6 3 2 4 8 9 5 6 7 6 3 3 2 4
10 7 4 3 5 6 8 8 10 11 13 17 18 15 12 10 7 8 5 2 3 5 6 8 8 4 4 4 2 3 8 5 9 10 4 2 3 3 6 6 5 3 4 2 2 1 3
11 8 5 3 5 6 8 8 11 11 13 17 17 14 11 10 8 7 1 2 2 1 3 4 4 1 4 4 2 2 3 4 2 7 4 2 2 2 1 3 8 4 3 2 2 3 4
12 9 6 4 4 7 7 8 11 12 15 15 16 7 9 10 9 3 2 3 4 2 1 2 4 4 5 4 4 3 3 3 3 3 5 4 3 2 3 2 2 3 2 2 1 2 3
14 10 7 5 4 7 7 8 10 13 13 12 6 4 10 13 4 2 3 4 4 4 4 4 5 6 4 3 4 3 3 2 2 2 2 4 1 2 1 2 3 2 1 1 2 2 2
14 11 8 6 4 5 6 8 9 13 13 9 5 5 7 12 3 3 4 4 4 3 3 3 3 2 3 4 4 4 3 3 3 1 3 1 0 2 3 4 3 4 2 2 1 1 8
15 12 10 7 5 5 6 6 8 11 11 9 5 3 3 3 3 9 10 5 5 6 5 7 5 7 7 5 3 6 5 3 1 1 1 1 2 4 4 6 4 6 6 6 8 5 8
17 14 11 8 5 5 6 5 5 7 8 8 3 2 3 4 4 11 6 6 11 5 3 3 4 3 5 4 4 4 3 4 2 2 1 2 3 3 7 10 13 11 13 12 14 14 10
17 14 11 9 6 4 5 5 4 5 6 4 4 4 4 4 7 12 1 7 9 5 3 4 7 7 5 5 2 5 3 3 1 4 1 2 1 3 4 8 10 12 14 14 13 12 13
18 15 12 10 8 6 5 5 5 4 4 3 4 8 5 1 3 3 3 7 9 9 5 5 15 10 8 8 5 6 5 5 3 1 2 1 1 1 4 9 13 6 3 4 4 4 8
18 17 14 12 10 8 5 5 5 5 5 5 5 7 4 3 2 3 8 6 12 4 8 9 7 6 4 8 8 8 10 7 5 4 1 4 3 1 3 5 3 3 5 9 13 13 8
19 16 15 13 12 10 8 6 5 6 5 5 8 4 3 3 4 5 10 11 11 10 10 9 4 7 11 4 2 3 2 2 4 7 4 2 3 2 2 4 14 12 4 2 2 11 3
17 17 15 14 13 11 10 8 7 6 6 6 6 6 4 12 5 7 8 12 6 5 5 4 7 12 5 3 2 2 1 1 3 4 4 5 4 2 3 4 4 3 3 4 4 8 3
16 17 15 14 13 13 11 9 8 8 8 8 7 6 5 6 8 11 4 7 7 6 5 5 6 3 3 2 2 2 2 2 2 2 4 2 2 4 6 6 7 6 5 1 3 3 14
17 17 16 15 14 14 12 11 9 9 9 9 9 8 6 4 12 9 9 11 9 8 5 9 6 2 3 3 3 3 2 3 3 2 3 3 2 4 3 4 6 2 2 2 5 12 6
16 17 17 16 14 14 13 12 11 10 9 9 8 8 8 5 8 11 9 10 10 11 11 13 1 6 7 4 2 3 3 1 1 4 4 5 6 4 7 6 6 11 11 7 7 6 7
Wind_Direction
297 315 315 317 324 321 314 305 296 286 275 260 238 214 201 192 178 167 154 148 146 139 123 130 133 136 127 116 82 93 61 45 61 108 115 120 138 119 97 109 107 114 123 106 118 143 95
291 322 326 334 333 332 324 312 305 286 255 221 199 179 170 164 157 149 145 143 137 125 124 118 135 143 148 108 90 85 82 41 50 68 95 99 132 123 108 104 84 114 121 110 125 147 102
284 339 345 350 351 349 349 17 76 100 119 129 135 142 146 144 143 142 141 136 132 128 109 115 138 147 125 107 104 45 47 24 18 87 94 123 154 182 134 116 105 145 143 129 78 131 69
221 10 2 6 10 23 62 80 95 103 112 115 123 129 132 138 140 139 139 137 133 117 105 120 131 141 109 127 113 3 214 193 179 145 122 120 107 104 86 124 143 171 189 205 66 32 43
175 45 12 21 29 68 91 104 108 109 112 117 121 126 134 141 142 144 144 144 129 107 112 123 136 132 117 62 334 208 175 172 166 147 130 122 86 94 142 190 167 162 129 130 153 53 335
161 78 34 32 44 90 112 119 114 115 115 119 122 125 130 136 142 144 143 137 122 109 111 117 130 131 100 42 60 137 137 162 153 131 110 76 79 113 64 267 182 141 199 188 343 40 335
156 129 54 45 53 108 125 129 123 123 124 125 124 122 128 137 145 147 147 134 129 97 87 69 85 84 109 74 62 98 129 113 138 99 113 40 84 61 48 34 33 1 271 306 58 80 314
158 139 75 54 52 106 142 142 135 132 134 135 130 129 134 142 147 150 154 156 118 125 89 82 85 74 74 92 82 41 93 89 88 106 122 137 79 75 57 48 1 304 289 76 120 52 294
161 138 98 70 56 89 158 156 149 143 144 143 135 123 126 139 148 156 161 147 142 119 101 72 62 47 26 56 48 11 41 82 85 102 108 85 75 102 331 37 348 44 343 12 315 302 215
167 137 117 89 64 70 160 166 164 159 153 152 148 143 135 142 149 154 148 157 170 150 118 53 42 23 336 121 62 21 38 66 87 106 88 77 73 55 71 61 345 241 9 307 276 253 216
168 139 124 107 78 67 138 171 174 172 164 162 161 157 154 139 153 144 149 147 166 204 155 146 69 50 52 83 92 22 35 70 80 91 243 88 73 44 48 23 351 26 317 306 275 237 246
170 143 127 107 83 68 102 168 173 176 173 170 170 168 160 146 167 161 147 140 152 248 136 143 137 117 91 55 50 40 56 67 90 75 76 94 83 32 11 316 308 322 260 187 169 198 227
174 153 141 112 88 67 77 154 162 169 175 176 174 171 166 170 162 169 174 154 208 258 173 136 121 109 88 54 63 59 64 56 43 160 63 129 66 72 6 307 181 352 259 225 214 206 27
173 163 159 114 90 65 71 133 147 151 167 173 173 172 164 172 174 174 168 198 217 106 126 106 123 100 83 27 57 53 73 60 42 17 98 19 140 14 359 15 343 20 5 30 319 323 315
171 171 169 129 98 70 73 121 139 136 152 164 168 169 174 176 175 173 186 201 149 163 131 143 140 132 104 87 81 90 57 50 29 11 38 359 95 95 56 28 313 38 56 25 124 161 255
172 174 166 147 108 81 77 113 142 134 139 150 156 164 179 185 182 167 150 98 108 109 126 177 135 305 133 108 125 102 69 28 74 29 342 56 189 55 119 249 62 34 120 224 33 339 302
179 177 166 158 123 95 78 101 151 139 139 140 145 148 176 174 163 169 161 107 121 83 68 20 116 115 99 116 91 96 91 101 30 63 40 9 300 115 237 347 341 169 153 69 69 302 281
185 181 176 163 140 108 89 85 150 153 150 153 167 147 169 163 147 75 126 111 112 115 85 93 88 91 108 95 90 105 130 61 13 337 24 32 6 265 29 62 333 325 125 87 306 196 224
192 186 185 175 153 120 103 84 122 162 164 159 125 107 158 172 151 117 124 99 76 127 54 105 104 74 117 118 119 121 124 125 30 23 26 56 285 263 179 173 198 248 192 118 79 234 245
195 192 192 182 166 139 120 101 96 149 169 162 138 126 104 180 131 148 144 133 117 68 80 82 107 120 124 103 72 140 141 140 41 73 82 241 237 268 307 333 323 261 268 260 251 251 268
200 195 197 191 178 159 140 131 107 121 147 158 116 101 143 154 152 142 131 147 140 136 94 101 109 163 139 120 109 131 144 159 130 133 86 320 283 289 289 291 289 285 275 266 250 249 263
206 202 200 197 190 186 154 151 149 133 131 129 131 146 93 90 130 134 103 153 153 126 153 126 143 121 122 127 130 169 174 218 200 144 102 25 291 347 288 298 294 293 272 263 256 254 259
204 208 204 204 197 198 177 166 163 157 154 116 111 135 134 27 127 164 142 148 152 133 55 101 134 118 100 106 89 71 82 75 85 172 160 283 172 9 281 316 316 276 238 164 269 207 283
202 205 206 206 203 199 196 179 167 154 150 128 142 139 110 128 188 125 149 135 144 104 129 129 125 112 121 137 109 89 71 74 105 57 351 132 130 74 290 301 272 52 299 288 292 291 286
199 203 204 203 204 200 198 190 177 165 155 138 142 131 126 106 127 121 139 127 112 100 105 127 66 122 138 132 98 32 116 71 77 52 67 228 135 141 258 262 296 293 80 82 279 293 351
193 199 204 203 201 203 197 193 184 169 156 153 147 121 105 122 220 145 131 158 138 124 117 87 114 140 133 83 74 108 230 322 169 146 69 80 99 246 187 251 263 21 56 327 298 266 65
192 194 198 203 202 203 201 197 190 176 167 159 154 139 123 105 160 153 151 162 139 132 120 137 153 140 130 90 102 177 209 328 235 208 194 146 164 232 237 251 270 324 62 359 287 5 334
194 194 196 201 205 207 203 199 197 191 183 174 165 165 155 124 163 175 155 157 153 162 150 152 142 153 88 93 157 192 205 194 214 258 211 250 223 210 199 256 264 109 303 265 316 314 294
210 201 200 202 205 211 210 203 202 199 195 188 184 178 168 154 170 174 173 172 178 188 162 167 165 147 161 112 177 137 187 159 241 253 191 254 206 271 198 241 273 303 297 274 293 271 283
Height
1520 1519 1517 1514 1511 1508 1506 1504 1503 1501 1500 1500 1500 1501 1501 1503 1506 1509 1511 1514 1517 1520 1520 1522 1523 1525 1526 1527 1528 1527 1526 1525 1523 1523 1522 1523 1524 1524 1521 1525 1526 1528 1532 1532 1537 1538 1538
1519 1518 1516 1513 1510 1507 1505 1503 1501 1500 1499 1499 1499 1500 1502 1504 1507 1509 1513 1516 1518 1520 1522 1523 1524 1525 1527 1528 1529 1528 1527 1527 1526 1526 1524 1525 1525 1525 1526 1527 1526 1533 1533 1534 1536 1538 1538
1518 1517 1514 1512 1509 1507 1505 1503 1501 1500 1500 1499 1500 1501 1503 1505 1508 1512 1515 1517 1519 1521 1522 1523 1524 1526 1528 1530 1529 1528 1528 1528 1527 1526 1526 1525 1525 1526 1527 1528 1533 1535 1532 1530 1536 1536 1537
1517 1516 1514 1511 1508 1507 1505 1503 1502 1502 1502 1502 1502 1503 1505 1508 1511 1514 1516 1519 1521 1523 1523 1524 1526 1527 1529 1529 1529 1528 1527 1528 1527 1527 1527 1526 1526 1526 1528 1531 1533 1528 1527 1527 1537 1534 1534
1516 1515 1514 1510 1509 1507 1505 1504 1504 1503 1504 1504 1505 1506 1508 1511 1513 1515 1518 1520 1522 1523 1525 1526 1528 1527 1529 1529 1529 1527 1527 1528 1528 1528 1527 1527 1527 1528 1530 1524 1524 1525 1526 1532 1535 1537 1533
1515 1514 1513 1511 1509 1507 1506 1506 1505 1506 1506 1507 1508 1509 1511 1513 1515 1518 1520 1522 1524 1525 1526 1527 1528 1529 1530 1531 1527 1526 1527 1527 1527 1527 1528 1528 1526 1523 1524 1521 1528 1531 1531 1530 1533 1533 1532
1514 1514 1512 1511 1510 1508 1507 1507 1507 1507 1508 1509 1510 1511 1513 1516 1518 1520 1521 1523 1528 1529 1527 1528 1529 1528 1530 1530 1528 1528 1527 1527 1527 1528 1525 1529 1525 1533 1536 1535 1535 1534 1534 1533 1532 1538 1538
1514 1513 1512 1511 1509 1508 1508 1508 1508 1508 1509 1511 1512 1514 1515 1517 1519 1521 1523 1523 1523 1527 1530 1530 1530 1530 1529 1528 1529 1528 1527 1529 1527 1527 1529 1529 1539 1541 1542 1539 1536 1535 1535 1535 1536 1540 1538
1513 1513 1512 1511 1509 1508 1508 1508 1509 1509 1511 1513 1514 1515 1516 1518 1521 1522 1523 1524 1525 1525 1528 1533 1533 1533 1532 1533 1533 1532 1531 1532 1531 1531 1531 1532 1543 1544 1541 1538 1537 1538 1537 1540 1542 1537 1536
1512 1512 1512 1510 1509 1508 1508 1508 1508 1510 1511 1513 1515 1517 1519 1520 1525 1523 1524 1525 1526 1527 1528 1536 1534 1535 1535 1533 1535 1535 1533 1535 1536 1537 1536 1541 1546 1543 1540 1542 1542 1539 1543 1544 1541 1538 1528
1511 1511 1512 1512 1510 1509 1507 1507 1508 1510 1511 1514 1515 1518 1519 1521 1523 1525 1527 1527 1528 1529 1540 1538 1536 1537 1536 1536 1539 1538 1536 1536 1536 1539 1538 1547 1544 1542 1542 1546 1544 1544 1546 1542 1540 1534 1534
1510 1510 1511 1510 1510 1508 1507 1507 1508 1509 1511 1513 1516 1518 1520 1522 1523 1525 1526 1528 1530 1534 1546 1537 1537 1538 1536 1538 1540 1540 1539 1538 1541 1538 1538 1544 1547 1546 1546 1546 1546 1546 1544 1541 1539 1535 1541
1509 1510 1511 1510 1509 1508 1507 1506 1507 1508 1510 1513 1516 1518 1521 1522 1524 1525 1527 1529 1531 1535 1538 1537 1536 1537 1537 1542 1543 1544 1543 1544 1543 1544 1545 1543 1546 1548 1549 1543 1544 1539 1538 1539 1547 1544 1542
1508 1509 1510 1510 1509 1508 1506 1506 1507 1507 1509 1512 1515 1518 1520 1522 1524 1526 1528 1530 1536 1535 1533 1535 1536 1538 1540 1543 1547 1546 1544 1545 1548 1546 1544 1547 1551 1550 1553 1551 1550 1547 1545 1551 1560 1554 1546
1506 1508 1509 1509 1509 1508 1507 1506 1507 1508 1509 1512 1515 1519 1521 1523 1524 1526 1529 1531 1532 1528 1530 1533 1536 1537 1543 1544 1545 1547 1552 1553 1557 1554 1550 1552 1552 1554 1555 1553 1552 1548 1552 1556 1562 1580 1561
1504 1507 1508 1509 1509 1508 1508 1507 1507 1508 1510 1512 1515 1519 1521 1522 1524 1527 1528 1532 1530 1533 1533 1533 1535 1539 1541 1545 1546 1547 1553 1560 1559 1560 1558 1558 1556 1555 1554 1554 1553 1548 1555 1554 1554 1569 1564
1502 1505 1507 1508 1508 1508 1508 1507 1508 1509 1511 1514 1517 1519 1521 1523 1525 1527 1527 1531 1533 1536 1535 1534 1537 1541 1543 1547 1547 1551 1557 1561 1560 1560 1559 1558 1557 1557 1556 1552 1551 1553 1552 1556 1555 1560 1563
1501 1504 1506 1508 1508 1508 1509 1508 1508 1510 1512 1515 1516 1518 1521 1523 1526 1528 1526 1529 1534 1536 1537 1538 1540 1541 1543 1549 1551 1553 1556 1558 1562 1561 1559 1562 1560 1558 1555 1558 1558 1555 1555 1555 1562 1566 1564
1501 1503 1506 1507 1508 1508 1508 1509 1508 1510 1512 1514 1516 1519 1521 1522 1526 1531 1532 1534 1536 1536 1538 1538 1541 1543 1546 1550 1555 1555 1558 1563 1563 1561 1560 1561 1560 1559 1556 1559 1557 1555 1557 1560 1563 1567 1566
1500 1503 1505 1506 1507 1507 1508 1509 1509 1510 1511 1514 1516 1520 1523 1523 1523 1523 1528 1533 1536 1539 1540 1541 1544 1545 1546 1550 1552 1556 1558 1562 1563 1562 1563 1563 1560 1560 1557 1556 1557 1559 1558 1559 1560 1566 1557
1498 1501 1504 1505 1506 1507 1508 1509 1510 1510 1511 1513 1514 1518 1519 1523 1525 1524 1527 1531 1534 1537 1541 1541 1544 1543 1545 1553 1554 1556 1557 1560 1563 1564 1564 1563 1563 1562 1560 1557 1555 1558 1557 1555 1554 1555 1560
1496 1499 1502 1504 1505 1507 1507 1509 1510 1511 1511 1513 1514 1517 1520 1524 1525 1525 1530 1531 1533 1538 1538 1540 1541 1545 1545 1549 1551 1555 1555 1558 1559 1564 1564 1566 1565 1569 1565 1560 1555 1556 1551 1549 1549 1547 1548
1494 1498 1500 1503 1505 1507 1507 1508 1509 1510 1512 1512 1513 1515 1518 1526 1527 1526 1528 1531 1533 1536 1542 1541 1543 1546 1551 1552 1554 1556 1559 1560 1562 1563 1565 1567 1568 1571 1568 1566 1561 1558 1547 1544 1544 1547 1546
1492 1495 1499 1501 1503 1505 1507 1508 1509 1510 1512 1512 1513 1515 1517 1526 1527 1526 1529 1531 1534 1536 1538 1545 1547 1548 1555 1554 1556 1558 1561 1563 1564 1567 1568 1575 1572 1578 1573 1571 1561 1545 1543 1544 1545 1542 1540
1489 1494 1497 1499 1502 1504 1506 1507 1508 1510 1511 1513 1513 1516 1517 1528 1527 1529 1530 1532 1537 1539 1543 1546 1549 1551 1554 1557 1557 1564 1561 1568 1569 1570 1569 1570 1573 1580 1577 1568 1551 1541 1541 1543 1544 1542 1542
1487 1492 1495 1498 1501 1503 1505 1507 1508 1510 1512 1513 1515 1516 1517 1520 1527 1527 1530 1533 1535 1540 1546 1549 1551 1552 1554 1557 1561 1567 1558 1561 1558 1565 1574 1573 1574 1572 1576 1574 1560 1539 1544 1545 1544 1540 1545
1485 1489 1493 1497 1499 1501 1504 1506 1508 1509 1512 1513 1515 1517 1519 1520 1524 1526 1529 1532 1535 1538 1542 1549 1552 1554 1554 1560 1564 1564 1559 1564 1558 1566 1568 1573 1576 1572 1569 1568 1552 1542 1546 1546 1550 1547 1547
1484 1487 1491 1495 1498 1501 1503 1505 1507 1509 1511 1513 1515 1517 1519 1520 1524 1526 1528 1529 1533 1536 1539 1547 1551 1553 1557 1562 1567 1565 1567 1560 1561 1556 1559 1558 1562 1568 1570 1567 1559 1546 1545 1550 1544 1544 1545
1483 1486 1489 1492 1495 1499 1501 1503 1506 1508 1510 1512 1515 1516 1518 1521 1524 1526 1527 1529 1531 1533 1536 1540 1543 1544 1548 1554 1562 1565 1564 1569 1561 1558 1555 1554 1551 1549 1554 1543 1538 1541 1544 1543 1542 1542 1541